owner,sensor,date,latitude,longitude,vertical_datum,wind_speed,wind_to_direction,wind_speed_of_gust,qcFlag 
DISL,ioos:station:DISL:CATA:1,2015-04-01T00:00:00Z,30.3085,-88.1395,0.0,7.72,208.6,-9999.0,'1111122,1111122,1111122' 
DISL,ioos:station:DISL:CATA:1,2015-04-01T00:30:00Z,30.3085,-88.1395,0.0,7.3,215.0,-9999.0,'1111122,1111122,1111122' 
DISL,ioos:station:DISL:CATA:1,2015-04-01T01:00:00Z,30.3085,-88.1395,0.0,8.74,223.7,-9999.0,'1111122,1111122,1111122' 
DISL,ioos:station:DISL:CATA:1,2015-04-01T01:30:00Z,30.3085,-88.1395,0.0,8.7,227.9,-9999.0,'1111122,1111122,1111122' 
DISL,ioos:station:DISL:CATA:1,2015-04-01T02:00:00Z,30.3085,-88.1395,0.0,8.34,235.7,-9999.0,'1111122,1111122,1111122' 
DISL,ioos:station:DISL:CATA:1,2015-04-01T02:30:00Z,30.3085,-88.1395,0.0,7.78,233.6,-9999.0,'1111122,1111122,1111122' 
DISL,ioos:station:DISL:CATA:1,2015-04-01T03:00:00Z,30.3085,-88.1395,0.0,7.87,235.5,-9999.0,'1111122,1111122,1111122' 
DISL,ioos:station:DISL:CATA:1,2015-04-01T03:30:00Z,30.3085,-88.1395,0.0,7.88,238.4,-9999.0,'1111122,1111122,1111122' 
DISL,ioos:station:DISL:CATA:1,2015-04-01T04:00:00Z,30.3085,-88.1395,0.0,6.61,239.9,-9999.0,'1111122,1111122,1111122' 
DISL,ioos:station:DISL:CATA:1,2015-04-01T04:30:00Z,30.3085,-88.1395,0.0,7.04,234.6,-9999.0,'1111122,1111122,1111122' 
DISL,ioos:station:DISL:CATA:1,2015-04-01T05:00:00Z,30.3085,-88.1395,0.0,6.92,234.5,-9999.0,'1111122,1111122,1111122' 
DISL,ioos:station:DISL:CATA:1,2015-04-01T05:30:00Z,30.3085,-88.1395,0.0,7.19,227.0,-9999.0,'1111122,1111122,1111122' 
DISL,ioos:station:DISL:CATA:1,2015-04-01T06:00:00Z,30.3085,-88.1395,0.0,7.82,230.1,-9999.0,'1111122,1111122,1111122' 
DISL,ioos:station:DISL:CATA:1,2015-04-01T06:30:00Z,30.3085,-88.1395,0.0,7.73,228.9,-9999.0,'1111122,1111122,1111122' 
DISL,ioos:station:DISL:CATA:1,2015-04-01T07:00:00Z,30.3085,-88.1395,0.0,7.22,235.9,-9999.0,'1111122,1111122,1111122' 
DISL,ioos:station:DISL:CATA:1,2015-04-01T07:30:00Z,30.3085,-88.1395,0.0,7.64,237.5,-9999.0,'1111122,1111122,1111122' 
DISL,ioos:station:DISL:CATA:1,2015-04-01T08:00:00Z,30.3085,-88.1395,0.0,7.56,241.8,-9999.0,'1111122,1111122,1111122' 
DISL,ioos:station:DISL:CATA:1,2015-04-01T08:30:00Z,30.3085,-88.1395,0.0,6.94,244.0,-9999.0,'1111122,1111122,1111122' 
DISL,ioos:station:DISL:CATA:1,2015-04-01T09:00:00Z,30.3085,-88.1395,0.0,6.16,247.6,-9999.0,'1111122,1111122,1111122' 
DISL,ioos:station:DISL:CATA:1,2015-04-01T09:30:00Z,30.3085,-88.1395,0.0,4.92,251.4,-9999.0,'1111122,1111122,1111122' 
DISL,ioos:station:DISL:CATA:1,2015-04-01T10:00:00Z,30.3085,-88.1395,0.0,4.89,242.6,-9999.0,'1111122,1111122,1111122' 
DISL,ioos:station:DISL:CATA:1,2015-04-01T10:30:00Z,30.3085,-88.1395,0.0,4.02,244.8,-9999.0,'1111122,1111122,1111122' 
DISL,ioos:station:DISL:CATA:1,2015-04-01T11:00:00Z,30.3085,-88.1395,0.0,2.7,264.3,-9999.0,'1111122,1111122,1111122' 
DISL,ioos:station:DISL:CATA:1,2015-04-01T11:30:00Z,30.3085,-88.1395,0.0,2.81,267.9,-9999.0,'1111122,1111122,1111122' 
DISL,ioos:station:DISL:CATA:1,2015-04-01T12:00:00Z,30.3085,-88.1395,0.0,2.08,297.5,-9999.0,'1111122,1111122,1111122' 
DISL,ioos:station:DISL:CATA:1,2015-04-01T12:30:00Z,30.3085,-88.1395,0.0,1.38,358.7,-9999.0,'1111122,1111122,1111122' 
DISL,ioos:station:DISL:CATA:1,2015-04-01T13:00:00Z,30.3085,-88.1395,0.0,3.46,32.59,-9999.0,'1111122,1111122,1111122' 
DISL,ioos:station:DISL:CATA:1,2015-04-01T13:30:00Z,30.3085,-88.1395,0.0,3.19,58.02,-9999.0,'1111122,1111122,1111122' 
DISL,ioos:station:DISL:CATA:1,2015-04-01T14:00:00Z,30.3085,-88.1395,0.0,2.52,79.62,-9999.0,'1111122,1111122,1111122' 
DISL,ioos:station:DISL:CATA:1,2015-04-01T14:30:00Z,30.3085,-88.1395,0.0,2.38,89.1,-9999.0,'1111122,1111122,1111122' 
DISL,ioos:station:DISL:CATA:1,2015-04-01T15:00:00Z,30.3085,-88.1395,0.0,2.34,109.5,-9999.0,'1111122,1111122,1111122' 
DISL,ioos:station:DISL:CATA:1,2015-04-01T15:30:00Z,30.3085,-88.1395,0.0,2.74,134.0,-9999.0,'1111122,1111122,1111122' 
DISL,ioos:station:DISL:CATA:1,2015-04-01T16:00:00Z,30.3085,-88.1395,0.0,2.46,139.5,-9999.0,'1111122,1111122,1111122' 
DISL,ioos:station:DISL:CATA:1,2015-04-01T16:30:00Z,30.3085,-88.1395,0.0,2.91,152.1,-9999.0,'1111122,1111122,1111122' 
DISL,ioos:station:DISL:CATA:1,2015-04-01T17:00:00Z,30.3085,-88.1395,0.0,3.96,195.8,-9999.0,'1111122,1111122,1111122' 
DISL,ioos:station:DISL:CATA:1,2015-04-01T17:30:00Z,30.3085,-88.1395,0.0,5.08,190.9,-9999.0,'1111122,1111122,1111122' 
DISL,ioos:station:DISL:CATA:1,2015-04-01T18:00:00Z,30.3085,-88.1395,0.0,5.27,196.0,-9999.0,'1111122,1111122,1111122' 
DISL,ioos:station:DISL:CATA:1,2015-04-01T18:30:00Z,30.3085,-88.1395,0.0,5.96,202.1,-9999.0,'1111122,1111122,1111122' 
DISL,ioos:station:DISL:CATA:1,2015-04-01T19:00:00Z,30.3085,-88.1395,0.0,5.72,197.5,-9999.0,'1111122,1111122,1111122' 
DISL,ioos:station:DISL:CATA:1,2015-04-01T19:30:00Z,30.3085,-88.1395,0.0,5.91,202.1,-9999.0,'1111122,1111122,1111122' 
DISL,ioos:station:DISL:CATA:1,2015-04-01T20:00:00Z,30.3085,-88.1395,0.0,5.22,197.4,-9999.0,'1111122,1111122,1111122' 
DISL,ioos:station:DISL:CATA:1,2015-04-01T20:30:00Z,30.3085,-88.1395,0.0,4.25,191.1,-9999.0,'1111122,1111122,1111122' 
DISL,ioos:station:DISL:CATA:1,2015-04-01T21:00:00Z,30.3085,-88.1395,0.0,4.0,194.9,-9999.0,'1111122,1111122,1111122' 
DISL,ioos:station:DISL:CATA:1,2015-04-01T21:30:00Z,30.3085,-88.1395,0.0,4.07,181.9,-9999.0,'1111122,1111122,1111122' 
DISL,ioos:station:DISL:CATA:1,2015-04-01T22:00:00Z,30.3085,-88.1395,0.0,5.31,191.8,-9999.0,'1111122,1111122,1111122' 
DISL,ioos:station:DISL:CATA:1,2015-04-01T22:30:00Z,30.3085,-88.1395,0.0,6.01,192.6,-9999.0,'1111122,1111122,1111122' 
DISL,ioos:station:DISL:CATA:1,2015-04-01T23:00:00Z,30.3085,-88.1395,0.0,6.81,188.5,-9999.0,'1111122,1111122,1111122' 
DISL,ioos:station:DISL:CATA:1,2015-04-01T23:30:00Z,30.3085,-88.1395,0.0,6.43,188.8,-9999.0,'1111122,1111122,1111122' 
DISL,ioos:station:DISL:CATA:1,2015-04-02T00:00:00Z,30.3085,-88.1395,0.0,6.69,187.8,-9999.0,'1111122,1111122,1111122' 
DISL,ioos:station:DISL:CATA:1,2015-04-02T00:30:00Z,30.3085,-88.1395,0.0,6.68,186.5,-9999.0,'1111122,1111122,1111122' 
DISL,ioos:station:DISL:CATA:1,2015-04-02T01:00:00Z,30.3085,-88.1395,0.0,6.7,184.3,-9999.0,'1111122,1111122,1111122' 
DISL,ioos:station:DISL:CATA:1,2015-04-02T01:30:00Z,30.3085,-88.1395,0.0,6.32,182.4,-9999.0,'1111122,1111122,1111122' 
DISL,ioos:station:DISL:CATA:1,2015-04-02T02:00:00Z,30.3085,-88.1395,0.0,6.45,181.0,-9999.0,'1111122,1111122,1111122' 
DISL,ioos:station:DISL:CATA:1,2015-04-02T02:30:00Z,30.3085,-88.1395,0.0,7.1,182.3,-9999.0,'1111122,1111122,1111122' 
DISL,ioos:station:DISL:CATA:1,2015-04-02T03:00:00Z,30.3085,-88.1395,0.0,7.14,183.4,-9999.0,'1111122,1111122,1111122' 
DISL,ioos:station:DISL:CATA:1,2015-04-02T03:30:00Z,30.3085,-88.1395,0.0,6.36,183.1,-9999.0,'1111122,1111122,1111122' 
DISL,ioos:station:DISL:CATA:1,2015-04-02T04:00:00Z,30.3085,-88.1395,0.0,5.86,178.9,-9999.0,'1111122,1111122,1111122' 
DISL,ioos:station:DISL:CATA:1,2015-04-02T04:30:00Z,30.3085,-88.1395,0.0,6.28,181.4,-9999.0,'1111122,1111122,1111122' 
DISL,ioos:station:DISL:CATA:1,2015-04-02T05:00:00Z,30.3085,-88.1395,0.0,5.67,178.5,-9999.0,'1111122,1111122,1111122' 
DISL,ioos:station:DISL:CATA:1,2015-04-02T05:30:00Z,30.3085,-88.1395,0.0,6.32,186.9,-9999.0,'1111122,1111122,1111122' 
DISL,ioos:station:DISL:CATA:1,2015-04-02T06:00:00Z,30.3085,-88.1395,0.0,7.31,196.3,-9999.0,'1111122,1111122,1111122' 
DISL,ioos:station:DISL:CATA:1,2015-04-02T06:30:00Z,30.3085,-88.1395,0.0,5.76,179.2,-9999.0,'1111122,1111122,1111122' 
DISL,ioos:station:DISL:CATA:1,2015-04-02T07:00:00Z,30.3085,-88.1395,0.0,5.36,178.9,-9999.0,'1111122,1111122,1111122' 
DISL,ioos:station:DISL:CATA:1,2015-04-02T07:30:00Z,30.3085,-88.1395,0.0,5.62,181.0,-9999.0,'1111122,1111122,1111122' 
DISL,ioos:station:DISL:CATA:1,2015-04-02T08:00:00Z,30.3085,-88.1395,0.0,6.13,182.9,-9999.0,'1111122,1111122,1111122' 
DISL,ioos:station:DISL:CATA:1,2015-04-02T08:30:00Z,30.3085,-88.1395,0.0,4.87,185.1,-9999.0,'1111122,1111122,1111122' 
DISL,ioos:station:DISL:CATA:1,2015-04-02T09:00:00Z,30.3085,-88.1395,0.0,4.86,193.1,-9999.0,'1111122,1111122,1111122' 
DISL,ioos:station:DISL:CATA:1,2015-04-02T09:30:00Z,30.3085,-88.1395,0.0,3.97,188.8,-9999.0,'1111122,1111122,1111122' 
DISL,ioos:station:DISL:CATA:1,2015-04-02T10:00:00Z,30.3085,-88.1395,0.0,4.33,200.3,-9999.0,'1111122,1111122,1111122' 
DISL,ioos:station:DISL:CATA:1,2015-04-02T10:30:00Z,30.3085,-88.1395,0.0,5.36,190.8,-9999.0,'1111122,1111122,1111122' 
DISL,ioos:station:DISL:CATA:1,2015-04-02T11:00:00Z,30.3085,-88.1395,0.0,5.91,180.3,-9999.0,'1111122,1111122,1111122' 
DISL,ioos:station:DISL:CATA:1,2015-04-02T11:30:00Z,30.3085,-88.1395,0.0,5.7,165.6,-9999.0,'1111122,1111122,1111122' 
DISL,ioos:station:DISL:CATA:1,2015-04-02T12:00:00Z,30.3085,-88.1395,0.0,5.19,180.8,-9999.0,'1111122,1111122,1111122' 
DISL,ioos:station:DISL:CATA:1,2015-04-02T12:30:00Z,30.3085,-88.1395,0.0,5.69,170.2,-9999.0,'1111122,1111122,1111122' 
DISL,ioos:station:DISL:CATA:1,2015-04-02T13:00:00Z,30.3085,-88.1395,0.0,5.53,160.1,-9999.0,'1111122,1111122,1111122' 
DISL,ioos:station:DISL:CATA:1,2015-04-02T13:30:00Z,30.3085,-88.1395,0.0,6.32,166.5,-9999.0,'1111122,1111122,1111122' 
DISL,ioos:station:DISL:CATA:1,2015-04-02T14:00:00Z,30.3085,-88.1395,0.0,6.42,171.0,-9999.0,'1111122,1111122,1111122' 
DISL,ioos:station:DISL:CATA:1,2015-04-02T14:30:00Z,30.3085,-88.1395,0.0,6.44,164.0,-9999.0,'1111122,1111122,1111122' 
DISL,ioos:station:DISL:CATA:1,2015-04-02T15:00:00Z,30.3085,-88.1395,0.0,6.9,159.5,-9999.0,'1111122,1111122,1111122' 
DISL,ioos:station:DISL:CATA:1,2015-04-02T15:30:00Z,30.3085,-88.1395,0.0,7.14,162.9,-9999.0,'1111122,1111122,1111122' 
DISL,ioos:station:DISL:CATA:1,2015-04-02T16:00:00Z,30.3085,-88.1395,0.0,6.64,164.9,-9999.0,'1111122,1111122,1111122' 
DISL,ioos:station:DISL:CATA:1,2015-04-02T16:30:00Z,30.3085,-88.1395,0.0,7.15,162.5,-9999.0,'1111122,1111122,1111122' 
DISL,ioos:station:DISL:CATA:1,2015-04-02T17:00:00Z,30.3085,-88.1395,0.0,7.92,160.3,-9999.0,'1111122,1111122,1111122' 
DISL,ioos:station:DISL:CATA:1,2015-04-02T17:30:00Z,30.3085,-88.1395,0.0,8.38,164.3,-9999.0,'1111122,1111122,1111122' 
DISL,ioos:station:DISL:CATA:1,2015-04-02T18:00:00Z,30.3085,-88.1395,0.0,8.2,166.3,-9999.0,'1111122,1111122,1111122' 
DISL,ioos:station:DISL:CATA:1,2015-04-02T18:30:00Z,30.3085,-88.1395,0.0,8.59,168.4,-9999.0,'1111122,1111122,1111122' 
DISL,ioos:station:DISL:CATA:1,2015-04-02T19:00:00Z,30.3085,-88.1395,0.0,8.07,168.1,-9999.0,'1111122,1111122,1111122' 
DISL,ioos:station:DISL:CATA:1,2015-04-02T19:30:00Z,30.3085,-88.1395,0.0,7.89,168.0,-9999.0,'1111122,1111122,1111122' 
DISL,ioos:station:DISL:CATA:1,2015-04-02T20:00:00Z,30.3085,-88.1395,0.0,6.87,164.1,-9999.0,'1111122,1111122,1111122' 
DISL,ioos:station:DISL:CATA:1,2015-04-02T20:30:00Z,30.3085,-88.1395,0.0,7.36,164.2,-9999.0,'1111122,1111122,1111122' 
DISL,ioos:station:DISL:CATA:1,2015-04-02T21:00:00Z,30.3085,-88.1395,0.0,7.62,165.4,-9999.0,'1111122,1111122,1111122' 
DISL,ioos:station:DISL:CATA:1,2015-04-02T21:30:00Z,30.3085,-88.1395,0.0,6.9,160.0,-9999.0,'1111122,1111122,1111122' 
DISL,ioos:station:DISL:CATA:1,2015-04-02T22:00:00Z,30.3085,-88.1395,0.0,6.73,158.7,-9999.0,'1111122,1111122,1111122' 
DISL,ioos:station:DISL:CATA:1,2015-04-02T22:30:00Z,30.3085,-88.1395,0.0,6.46,162.6,-9999.0,'1111122,1111122,1111122' 
DISL,ioos:station:DISL:CATA:1,2015-04-02T23:00:00Z,30.3085,-88.1395,0.0,6.1,165.0,-9999.0,'1111122,1111122,1111122' 
DISL,ioos:station:DISL:CATA:1,2015-04-02T23:30:00Z,30.3085,-88.1395,0.0,6.34,158.0,-9999.0,'1111122,1111122,1111122' 
DISL,ioos:station:DISL:CATA:1,2015-04-03T00:00:00Z,30.3085,-88.1395,0.0,5.75,158.0,-9999.0,'1111122,1111122,1111122' 
DISL,ioos:station:DISL:CATA:1,2015-04-03T00:30:00Z,30.3085,-88.1395,0.0,5.19,152.3,-9999.0,'1111122,1111122,1111122' 
DISL,ioos:station:DISL:CATA:1,2015-04-03T01:00:00Z,30.3085,-88.1395,0.0,5.91,154.6,-9999.0,'1111122,1111122,1111122' 
DISL,ioos:station:DISL:CATA:1,2015-04-03T01:30:00Z,30.3085,-88.1395,0.0,6.54,159.4,-9999.0,'1111122,1111122,1111122' 
DISL,ioos:station:DISL:CATA:1,2015-04-03T02:00:00Z,30.3085,-88.1395,0.0,6.87,158.1,-9999.0,'1111122,1111122,1111122' 
DISL,ioos:station:DISL:CATA:1,2015-04-03T02:30:00Z,30.3085,-88.1395,0.0,6.6,165.0,-9999.0,'1111122,1111122,1111122' 
DISL,ioos:station:DISL:CATA:1,2015-04-03T03:00:00Z,30.3085,-88.1395,0.0,6.65,164.0,-9999.0,'1111122,1111122,1111122' 
DISL,ioos:station:DISL:CATA:1,2015-04-03T03:30:00Z,30.3085,-88.1395,0.0,6.14,163.5,-9999.0,'1111122,1111122,1111122' 
DISL,ioos:station:DISL:CATA:1,2015-04-03T04:00:00Z,30.3085,-88.1395,0.0,6.13,159.1,-9999.0,'1111122,1111122,1111122' 
DISL,ioos:station:DISL:CATA:1,2015-04-03T04:30:00Z,30.3085,-88.1395,0.0,6.37,166.4,-9999.0,'1111122,1111122,1111122' 
DISL,ioos:station:DISL:CATA:1,2015-04-03T05:00:00Z,30.3085,-88.1395,0.0,6.48,172.5,-9999.0,'1111122,1111122,1111122' 
DISL,ioos:station:DISL:CATA:1,2015-04-03T05:30:00Z,30.3085,-88.1395,0.0,6.96,169.3,-9999.0,'1111122,1111122,1111122' 
DISL,ioos:station:DISL:CATA:1,2015-04-03T06:00:00Z,30.3085,-88.1395,0.0,6.57,168.0,-9999.0,'1111122,1111122,1111122' 
DISL,ioos:station:DISL:CATA:1,2015-04-03T06:30:00Z,30.3085,-88.1395,0.0,6.98,171.5,-9999.0,'1111122,1111122,1111122' 
DISL,ioos:station:DISL:CATA:1,2015-04-03T07:00:00Z,30.3085,-88.1395,0.0,6.65,172.3,-9999.0,'1111122,1111122,1111122' 
DISL,ioos:station:DISL:CATA:1,2015-04-03T07:30:00Z,30.3085,-88.1395,0.0,5.85,175.5,-9999.0,'1111122,1111122,1111122' 
DISL,ioos:station:DISL:CATA:1,2015-04-03T08:00:00Z,30.3085,-88.1395,0.0,5.75,183.5,-9999.0,'1111122,1111122,1111122' 
DISL,ioos:station:DISL:CATA:1,2015-04-03T08:30:00Z,30.3085,-88.1395,0.0,5.05,185.5,-9999.0,'1111122,1111122,1111122' 
DISL,ioos:station:DISL:CATA:1,2015-04-03T09:00:00Z,30.3085,-88.1395,0.0,5.55,187.7,-9999.0,'1111122,1111122,1111122' 
DISL,ioos:station:DISL:CATA:1,2015-04-03T09:30:00Z,30.3085,-88.1395,0.0,6.07,189.7,-9999.0,'1111122,1111122,1111122' 
DISL,ioos:station:DISL:CATA:1,2015-04-03T10:00:00Z,30.3085,-88.1395,0.0,5.62,191.3,-9999.0,'1111122,1111122,1111122' 
DISL,ioos:station:DISL:CATA:1,2015-04-03T10:30:00Z,30.3085,-88.1395,0.0,6.14,184.6,-9999.0,'1111122,1111122,1111122' 
DISL,ioos:station:DISL:CATA:1,2015-04-03T11:00:00Z,30.3085,-88.1395,0.0,4.8,186.4,-9999.0,'1111122,1111122,1111122' 
DISL,ioos:station:DISL:CATA:1,2015-04-03T11:30:00Z,30.3085,-88.1395,0.0,4.05,186.7,-9999.0,'1111122,1111122,1111122' 
DISL,ioos:station:DISL:CATA:1,2015-04-03T12:00:00Z,30.3085,-88.1395,0.0,3.82,177.5,-9999.0,'1111122,1111122,1111122' 
DISL,ioos:station:DISL:CATA:1,2015-04-03T12:30:00Z,30.3085,-88.1395,0.0,3.86,164.4,-9999.0,'1111122,1111122,1111122' 
DISL,ioos:station:DISL:CATA:1,2015-04-03T13:00:00Z,30.3085,-88.1395,0.0,5.09,174.9,-9999.0,'1111122,1111122,1111122' 
DISL,ioos:station:DISL:CATA:1,2015-04-03T13:30:00Z,30.3085,-88.1395,0.0,5.55,169.8,-9999.0,'1111122,1111122,1111122' 
DISL,ioos:station:DISL:CATA:1,2015-04-03T14:00:00Z,30.3085,-88.1395,0.0,5.93,170.4,-9999.0,'1111122,1111122,1111122' 
DISL,ioos:station:DISL:CATA:1,2015-04-03T14:30:00Z,30.3085,-88.1395,0.0,6.19,175.5,-9999.0,'1111122,1111122,1111122' 
DISL,ioos:station:DISL:CATA:1,2015-04-03T15:00:00Z,30.3085,-88.1395,0.0,6.61,176.3,-9999.0,'1111122,1111122,1111122' 
DISL,ioos:station:DISL:CATA:1,2015-04-03T15:30:00Z,30.3085,-88.1395,0.0,6.48,179.3,-9999.0,'1111122,1111122,1111122' 
DISL,ioos:station:DISL:CATA:1,2015-04-03T16:00:00Z,30.3085,-88.1395,0.0,6.36,186.7,-9999.0,'1111122,1111122,1111122' 
DISL,ioos:station:DISL:CATA:1,2015-04-03T16:30:00Z,30.3085,-88.1395,0.0,7.07,179.3,-9999.0,'1111122,1111122,1111122' 
DISL,ioos:station:DISL:CATA:1,2015-04-03T17:00:00Z,30.3085,-88.1395,0.0,7.55,177.9,-9999.0,'1111122,1111122,1111122' 
DISL,ioos:station:DISL:CATA:1,2015-04-03T17:30:00Z,30.3085,-88.1395,0.0,7.06,181.1,-9999.0,'1111122,1111122,1111122' 
DISL,ioos:station:DISL:CATA:1,2015-04-03T18:00:00Z,30.3085,-88.1395,0.0,6.92,181.3,-9999.0,'1111122,1111122,1111122' 
DISL,ioos:station:DISL:CATA:1,2015-04-03T18:30:00Z,30.3085,-88.1395,0.0,7.27,183.6,-9999.0,'1111122,1111122,1111122' 
DISL,ioos:station:DISL:CATA:1,2015-04-03T19:00:00Z,30.3085,-88.1395,0.0,7.63,178.6,-9999.0,'1111122,1111122,1111122' 
DISL,ioos:station:DISL:CATA:1,2015-04-03T19:30:00Z,30.3085,-88.1395,0.0,7.72,184.8,-9999.0,'1111122,1111122,1111122' 
DISL,ioos:station:DISL:CATA:1,2015-04-03T20:00:00Z,30.3085,-88.1395,0.0,7.23,183.9,-9999.0,'1111122,1111122,1111122' 
DISL,ioos:station:DISL:CATA:1,2015-04-03T20:30:00Z,30.3085,-88.1395,0.0,8.03,178.5,-9999.0,'1111122,1111122,1111122' 
DISL,ioos:station:DISL:CATA:1,2015-04-03T21:00:00Z,30.3085,-88.1395,0.0,7.59,179.4,-9999.0,'1111122,1111122,1111122' 
DISL,ioos:station:DISL:CATA:1,2015-04-03T21:30:00Z,30.3085,-88.1395,0.0,7.22,180.0,-9999.0,'1111122,1111122,1111122' 
DISL,ioos:station:DISL:CATA:1,2015-04-03T22:00:00Z,30.3085,-88.1395,0.0,7.06,182.9,-9999.0,'1111122,1111122,1111122' 
DISL,ioos:station:DISL:CATA:1,2015-04-03T22:30:00Z,30.3085,-88.1395,0.0,7.4,182.6,-9999.0,'1111122,1111122,1111122' 
DISL,ioos:station:DISL:CATA:1,2015-04-03T23:00:00Z,30.3085,-88.1395,0.0,7.3,184.8,-9999.0,'1111122,1111122,1111122' 
DISL,ioos:station:DISL:CATA:1,2015-04-03T23:30:00Z,30.3085,-88.1395,0.0,7.18,186.4,-9999.0,'1111122,1111122,1111122' 
DISL,ioos:station:DISL:CATA:1,2015-04-04T00:00:00Z,30.3085,-88.1395,0.0,6.9,187.4,-9999.0,'1111122,1111122,1111122' 
DISL,ioos:station:DISL:CATA:1,2015-04-04T00:30:00Z,30.3085,-88.1395,0.0,7.39,187.2,-9999.0,'1111122,1111122,1111122' 
DISL,ioos:station:DISL:CATA:1,2015-04-04T01:00:00Z,30.3085,-88.1395,0.0,7.72,188.8,-9999.0,'1111122,1111122,1111122' 
DISL,ioos:station:DISL:CATA:1,2015-04-04T01:30:00Z,30.3085,-88.1395,0.0,8.01,191.9,-9999.0,'1111122,1111122,1111122' 
DISL,ioos:station:DISL:CATA:1,2015-04-04T02:00:00Z,30.3085,-88.1395,0.0,7.61,187.6,-9999.0,'1111122,1111122,1111122' 
DISL,ioos:station:DISL:CATA:1,2015-04-04T02:30:00Z,30.3085,-88.1395,0.0,9.05,189.1,-9999.0,'1111122,1111122,1111122' 
DISL,ioos:station:DISL:CATA:1,2015-04-04T03:00:00Z,30.3085,-88.1395,0.0,8.56,193.5,-9999.0,'1111122,1111122,1111122' 
DISL,ioos:station:DISL:CATA:1,2015-04-04T03:30:00Z,30.3085,-88.1395,0.0,8.46,196.7,-9999.0,'1111122,1111122,1111122' 
DISL,ioos:station:DISL:CATA:1,2015-04-04T04:00:00Z,30.3085,-88.1395,0.0,8.45,203.8,-9999.0,'1111122,1111122,1111122' 
DISL,ioos:station:DISL:CATA:1,2015-04-04T04:30:00Z,30.3085,-88.1395,0.0,7.83,213.9,-9999.0,'1111122,1111122,1111122' 
DISL,ioos:station:DISL:CATA:1,2015-04-04T05:00:00Z,30.3085,-88.1395,0.0,7.85,212.8,-9999.0,'1111122,1111122,1111122' 
DISL,ioos:station:DISL:CATA:1,2015-04-04T05:30:00Z,30.3085,-88.1395,0.0,8.18,216.1,-9999.0,'1111122,1111122,1111122' 
DISL,ioos:station:DISL:CATA:1,2015-04-04T06:00:00Z,30.3085,-88.1395,0.0,7.9,219.9,-9999.0,'1111122,1111122,1111122' 
DISL,ioos:station:DISL:CATA:1,2015-04-04T06:30:00Z,30.3085,-88.1395,0.0,7.31,228.4,-9999.0,'1111122,1111122,1111122' 
DISL,ioos:station:DISL:CATA:1,2015-04-04T07:00:00Z,30.3085,-88.1395,0.0,7.46,234.4,-9999.0,'1111122,1111122,1111122' 
DISL,ioos:station:DISL:CATA:1,2015-04-04T07:30:00Z,30.3085,-88.1395,0.0,7.02,234.1,-9999.0,'1111122,1111122,1111122' 
DISL,ioos:station:DISL:CATA:1,2015-04-04T08:00:00Z,30.3085,-88.1395,0.0,6.57,231.2,-9999.0,'1111122,1111122,1111122' 
DISL,ioos:station:DISL:CATA:1,2015-04-04T08:30:00Z,30.3085,-88.1395,0.0,5.71,244.4,-9999.0,'1111122,1111122,1111122' 
DISL,ioos:station:DISL:CATA:1,2015-04-04T09:00:00Z,30.3085,-88.1395,0.0,5.33,244.8,-9999.0,'1111122,1111122,1111122' 
DISL,ioos:station:DISL:CATA:1,2015-04-04T09:30:00Z,30.3085,-88.1395,0.0,6.34,265.3,-9999.0,'1111122,1111122,1111122' 
DISL,ioos:station:DISL:CATA:1,2015-04-04T10:00:00Z,30.3085,-88.1395,0.0,5.06,277.8,-9999.0,'1111122,1111122,1111122' 
DISL,ioos:station:DISL:CATA:1,2015-04-04T10:30:00Z,30.3085,-88.1395,0.0,5.87,291.6,-9999.0,'1111122,1111122,1111122' 
DISL,ioos:station:DISL:CATA:1,2015-04-04T11:00:00Z,30.3085,-88.1395,0.0,6.19,303.0,-9999.0,'1111122,1111122,1111122' 
DISL,ioos:station:DISL:CATA:1,2015-04-04T11:30:00Z,30.3085,-88.1395,0.0,6.68,311.4,-9999.0,'1111122,1111122,1111122' 
DISL,ioos:station:DISL:CATA:1,2015-04-04T12:00:00Z,30.3085,-88.1395,0.0,5.68,329.5,-9999.0,'1111122,1111122,1111122' 
DISL,ioos:station:DISL:CATA:1,2015-04-04T12:30:00Z,30.3085,-88.1395,0.0,6.05,0.674,-9999.0,'1111122,1111122,1111122' 
DISL,ioos:station:DISL:CATA:1,2015-04-04T13:00:00Z,30.3085,-88.1395,0.0,8.06,9.52,-9999.0,'1111122,1111122,1111122' 
DISL,ioos:station:DISL:CATA:1,2015-04-04T13:30:00Z,30.3085,-88.1395,0.0,8.2,8.98,-9999.0,'1111122,1111122,1111122' 
DISL,ioos:station:DISL:CATA:1,2015-04-04T14:00:00Z,30.3085,-88.1395,0.0,6.89,17.72,-9999.0,'1111122,1111122,1111122' 
DISL,ioos:station:DISL:CATA:1,2015-04-04T14:30:00Z,30.3085,-88.1395,0.0,7.69,7.592,-9999.0,'1111122,1111122,1111122' 
DISL,ioos:station:DISL:CATA:1,2015-04-04T15:00:00Z,30.3085,-88.1395,0.0,8.69,4.439,-9999.0,'1111122,1111122,1111122' 
DISL,ioos:station:DISL:CATA:1,2015-04-04T15:30:00Z,30.3085,-88.1395,0.0,8.46,351.5,-9999.0,'1111122,1111122,1111122' 
DISL,ioos:station:DISL:CATA:1,2015-04-04T16:00:00Z,30.3085,-88.1395,0.0,7.13,9.3,-9999.0,'1111122,1111122,1111122' 
DISL,ioos:station:DISL:CATA:1,2015-04-04T16:30:00Z,30.3085,-88.1395,0.0,7.41,3.064,-9999.0,'1111122,1111122,1111122' 
DISL,ioos:station:DISL:CATA:1,2015-04-04T17:00:00Z,30.3085,-88.1395,0.0,6.76,12.85,-9999.0,'1111122,1111122,1111122' 
DISL,ioos:station:DISL:CATA:1,2015-04-04T17:30:00Z,30.3085,-88.1395,0.0,6.76,21.3,-9999.0,'1111122,1111122,1111122' 
DISL,ioos:station:DISL:CATA:1,2015-04-04T18:00:00Z,30.3085,-88.1395,0.0,6.8,28.91,-9999.0,'1111122,1111122,1111122' 
DISL,ioos:station:DISL:CATA:1,2015-04-04T18:30:00Z,30.3085,-88.1395,0.0,5.88,13.52,-9999.0,'1111122,1111122,1111122' 
DISL,ioos:station:DISL:CATA:1,2015-04-04T19:00:00Z,30.3085,-88.1395,0.0,7.45,33.42,-9999.0,'1111122,1111122,1111122' 
DISL,ioos:station:DISL:CATA:1,2015-04-04T19:30:00Z,30.3085,-88.1395,0.0,8.44,31.18,-9999.0,'1111122,1111122,1111122' 
DISL,ioos:station:DISL:CATA:1,2015-04-04T20:00:00Z,30.3085,-88.1395,0.0,7.4,24.46,-9999.0,'1111122,1111122,1111122' 
DISL,ioos:station:DISL:CATA:1,2015-04-04T20:30:00Z,30.3085,-88.1395,0.0,7.85,24.08,-9999.0,'1111122,1111122,1111122' 
DISL,ioos:station:DISL:CATA:1,2015-04-04T21:00:00Z,30.3085,-88.1395,0.0,7.13,21.94,-9999.0,'1111122,1111122,1111122' 
DISL,ioos:station:DISL:CATA:1,2015-04-04T21:30:00Z,30.3085,-88.1395,0.0,6.63,23.41,-9999.0,'1111122,1111122,1111122' 
DISL,ioos:station:DISL:CATA:1,2015-04-04T22:00:00Z,30.3085,-88.1395,0.0,6.24,23.29,-9999.0,'1111122,1111122,1111122' 
DISL,ioos:station:DISL:CATA:1,2015-04-04T22:30:00Z,30.3085,-88.1395,0.0,6.54,9.01,-9999.0,'1111122,1111122,1111122' 
DISL,ioos:station:DISL:CATA:1,2015-04-04T23:00:00Z,30.3085,-88.1395,0.0,5.86,18.05,-9999.0,'1111122,1111122,1111122' 
DISL,ioos:station:DISL:CATA:1,2015-04-04T23:30:00Z,30.3085,-88.1395,0.0,6.11,16.96,-9999.0,'1111122,1111122,1111122' 
DISL,ioos:station:DISL:CATA:1,2015-04-05T00:00:00Z,30.3085,-88.1395,0.0,4.9,14.97,-9999.0,'1111122,1111122,1111122' 
DISL,ioos:station:DISL:CATA:1,2015-04-05T00:30:00Z,30.3085,-88.1395,0.0,4.48,12.34,-9999.0,'1111122,1111122,1111122' 
DISL,ioos:station:DISL:CATA:1,2015-04-05T01:00:00Z,30.3085,-88.1395,0.0,4.93,12.38,-9999.0,'1111122,1111122,1111122' 
DISL,ioos:station:DISL:CATA:1,2015-04-05T01:30:00Z,30.3085,-88.1395,0.0,4.84,13.25,-9999.0,'1111122,1111122,1111122' 
DISL,ioos:station:DISL:CATA:1,2015-04-05T02:00:00Z,30.3085,-88.1395,0.0,7.06,36.13,-9999.0,'1111122,1111122,1111122' 
DISL,ioos:station:DISL:CATA:1,2015-04-05T02:30:00Z,30.3085,-88.1395,0.0,8.44,38.6,-9999.0,'1111122,1111122,1111122' 
DISL,ioos:station:DISL:CATA:1,2015-04-05T03:00:00Z,30.3085,-88.1395,0.0,8.0,45.82,-9999.0,'1111122,1111122,1111122' 
DISL,ioos:station:DISL:CATA:1,2015-04-05T03:30:00Z,30.3085,-88.1395,0.0,8.74,44.05,-9999.0,'1111122,1111122,1111122' 
DISL,ioos:station:DISL:CATA:1,2015-04-05T04:00:00Z,30.3085,-88.1395,0.0,9.94,40.7,-9999.0,'1111122,1111122,1111122' 
DISL,ioos:station:DISL:CATA:1,2015-04-05T04:30:00Z,30.3085,-88.1395,0.0,9.13,32.95,-9999.0,'1111122,1111122,1111122' 